DW9210 Weather Reports


time (UTC)temp
F
wind
direction
speed
knots
gust
knots
rain 1hr
in
rain 24hr
in
rain mn
in
humidity
%
barometer
mb
20260508091003 36 162 0.0 0.9 0.00 0.00 0.00 95 1014.9
20260508090503 36 159 0.0 0.9 0.00 0.00 0.00 95 1014.8
20260508090003 36 155 0.0 0.9 0.00 0.00 0.00 95 1014.7
20260508085524 36 155 0.0 0.9 0.00 0.00 0.00 94 1014.8
20260508085003 36 155 0.0 0.9 0.00 0.00 0.00 94 1014.8
20260508084524 36 155 0.0 0.9 0.00 0.00 0.00 94 1014.8
20260508084003 36 155 0.0 0.9 0.00 0.00 0.00 95 1014.9
20260508083503 36 155 0.0 0.9 0.00 0.00 0.00 94 1014.9
20260508083003 36 0 0.0 0.0 0.00 0.00 0.00 94 1014.7
20260508082503 37 155 0.0 0.9 0.00 0.00 0.00 95 1014.8
20260508082003 37 157 0.0 1.7 0.00 0.00 0.00 95 1014.8
20260508081503 37 174 0.9 1.7 0.00 0.00 0.00 95 1014.8
20260508081003 36 199 0.0 1.7 0.00 0.00 0.00 95 1014.8
20260508080503 36 0 0.0 0.0 0.00 0.00 0.00 94 1014.8
20260508080003 36 0 0.0 0.0 0.00 0.00 0.00 94 1014.9
20260508075524 36 0 0.0 0.0 0.00 0.00 0.00 94 1014.9
20260508075003 37 0 0.0 0.0 0.00 0.00 0.00 94 1014.8
20260508074524 37 0 0.0 0.0 0.00 0.00 0.00 94 1014.8
20260508074003 37 284 0.0 0.9 0.00 0.00 0.00 94 1014.8
20260508073503 37 283 0.0 0.9 0.00 0.00 0.00 94 1014.8
20260508073003 37 283 0.0 0.9 0.00 0.00 0.00 94 1014.8
20260508072503 37 0 0.0 0.0 0.00 0.00 0.00 94 1014.8
20260508072024 37 282 0.0 0.9 0.00 0.00 0.00 94 1014.8
20260508071503 37 284 0.0 0.9 0.00 0.00 0.00 94 1014.8
20260508071003 37 285 0.0 0.9 0.00 0.00 0.00 94 1014.9
20260508070503 37 0 0.0 0.0 0.00 0.00 0.00 94 1014.8
20260508070003 37 0 0.0 0.0 0.00 0.00 0.00 94 1014.8
20260508065524 37 0 0.0 0.0 0.00 0.00 0.00 94 1014.8
20260508065024 38 289 0.0 0.9 0.00 0.00 0.00 94 1014.8
20260508064524 38 284 0.0 0.9 0.00 0.00 0.00 94 1014.9
20260508064003 37 283 0.0 0.9 0.00 0.00 0.00 94 1014.9
20260508063524 37 0 0.0 0.0 0.00 0.00 0.00 94 1014.9
20260508063003 38 0 0.0 0.0 0.00 0.00 0.00 93 1014.9
20260508062503 38 0 0.0 0.0 0.00 0.00 0.00 94 1014.9
20260508062003 38 0 0.0 0.0 0.00 0.00 0.00 94 1014.9
20260508061503 38 0 0.0 0.0 0.00 0.00 0.00 94 1014.9
20260508061003 38 0 0.0 0.0 0.00 0.00 0.00 93 1015.0
20260508060524 38 0 0.0 0.0 0.00 0.00 0.00 93 1015.1
20260508060003 38 0 0.0 0.0 0.00 0.00 0.00 93 1015.2
20260508055503 38 0 0.0 0.0 0.00 0.00 0.00 93 1015.1
20260508055003 38 0 0.0 0.0 0.00 0.00 0.00 93 1015.2
20260508054503 39 0 0.0 0.0 0.00 0.00 0.00 93 1015.2
20260508054003 38 283 0.0 0.9 0.00 0.00 0.00 93 1015.2
20260508053503 39 283 0.0 0.9 0.00 0.00 0.00 92 1015.3
20260508053024 39 283 0.0 0.9 0.00 0.00 0.00 93 1015.2
20260508052503 39 283 0.0 0.9 0.00 0.00 0.00 93 1015.2
20260508052003 39 284 0.0 0.9 0.00 0.00 0.00 93 1015.2
20260508051503 39 0 0.0 0.0 0.00 0.00 0.00 93 1015.3
20260508051003 39 0 0.0 0.0 0.00 0.00 0.00 92 1015.2
20260508050503 39 283 0.0 0.9 0.00 0.00 0.00 93 1015.1
20260508050003 40 283 0.0 0.9 0.00 0.00 0.00 93 1015.1
20260508045503 40 283 0.0 0.9 0.00 0.00 0.00 93 1015.1
20260508045024 40 0 0.0 0.0 0.00 0.00 0.00 92 1015.1
20260508044503 40 0 0.0 0.0 0.00 0.00 0.00 92 1015.0
20260508044003 40 0 0.0 0.0 0.00 0.00 0.00 92 1015.0
20260508043503 40 0 0.0 0.0 0.00 0.00 0.00 92 1015.0
20260508043003 40 0 0.0 0.0 0.00 0.00 0.00 92 1014.9
20260508042524 40 0 0.0 0.0 0.00 0.00 0.00 92 1015.0
20260508042003 40 0 0.0 0.0 0.00 0.00 0.00 91 1015.1
20260508041503 40 0 0.0 0.0 0.00 0.00 0.00 91 1015.0
20260508041003 40 0 0.0 0.0 0.00 0.00 0.00 91 1015.1
20260508040503 40 0 0.0 0.0 0.00 0.00 0.00 90 1015.0
20260508040003 41 283 0.0 0.9 0.00 0.00 0.00 91 1015.1
20260508035503 41 283 0.0 0.9 0.00 0.00 0.00 90 1015.0
20260508035003 41 0 0.0 0.0 0.00 0.00 0.00 90 1015.0
20260508034503 41 0 0.0 0.0 0.00 0.00 0.00 90 1015.0
20260508034003 41 0 0.0 0.0 0.00 0.00 0.00 91 1015.1
20260508033503 41 0 0.0 0.0 0.00 0.00 0.00 91 1015.1
20260508033003 42 0 0.0 0.0 0.00 0.00 0.00 90 1015.1
20260508032503 42 0 0.0 0.0 0.00 0.00 0.00 90 1015.2
20260508032003 42 0 0.0 0.0 0.00 0.00 0.00 89 1015.2
20260508031503 42 0 0.0 0.0 0.00 0.00 0.00 88 1015.2
20260508031003 42 0 0.0 0.0 0.00 0.00 0.00 88 1015.2
20260508030503 42 0 0.0 0.0 0.00 0.00 0.00 88 1015.2
20260508030003 43 0 0.0 0.0 0.00 0.00 0.00 87 1015.2
20260508025503 43 0 0.0 0.0 0.00 0.00 0.00 86 1015.2
20260508025003 43 0 0.0 0.0 0.00 0.00 0.00 87 1015.2
20260508024503 44 0 0.0 0.0 0.00 0.00 0.00 86 1015.2
20260508024003 44 0 0.0 0.0 0.00 0.00 0.00 86 1015.1
20260508023503 44 283 0.0 0.9 0.00 0.00 0.00 85 1015.1
20260508023003 44 283 0.0 0.9 0.00 0.00 0.00 85 1015.1
20260508022524 44 0 0.0 0.0 0.00 0.00 0.00 84 1015.0
20260508022003 45 0 0.0 0.0 0.00 0.00 0.00 83 1015.0
20260508021524 45 0 0.0 0.0 0.00 0.00 0.00 82 1014.9
20260508021024 46 282 0.0 1.7 0.00 0.00 0.00 80 1014.9
20260508020524 46 286 0.0 1.7 0.00 0.00 0.00 79 1014.9
20260508020003 46 291 0.9 1.7 0.00 0.00 0.00 80 1014.8
20260508015503 47 297 0.0 0.9 0.00 0.00 0.00 77 1014.7
20260508015003 47 0 0.0 0.0 0.00 0.00 0.00 77 1014.6
20260508014503 48 0 0.0 0.0 0.00 0.00 0.00 76 1014.5
20260508014003 48 0 0.0 0.0 0.00 0.00 0.00 75 1014.5
20260508013503 48 297 0.0 0.9 0.00 0.00 0.00 72 1014.3
20260508013003 49 297 0.0 0.9 0.00 0.00 0.00 72 1014.3
20260508012524 49 305 0.0 0.9 0.00 0.00 0.00 71 1014.3
20260508012003 49 305 0.0 0.9 0.00 0.00 0.00 69 1014.3
20260508011503 50 0 0.0 0.0 0.00 0.00 0.00 68 1014.2
20260508011003 51 0 0.0 0.0 0.00 0.00 0.00 67 1014.2
20260508010503 51 0 0.0 0.0 0.00 0.00 0.00 65 1014.1
20260508010024 52 0 0.0 0.0 0.00 0.00 0.00 69 1014.0
20260508005524 52 0 0.0 0.0 0.00 0.00 0.00 67 1013.9
20260508005003 53 296 0.0 0.9 0.00 0.00 0.00 66 1013.9
20260508004503 53 296 0.0 0.9 0.00 0.00 0.00 65 1013.9
20260508004003 54 299 0.0 1.7 0.00 0.00 0.00 61 1013.9
20260508003503 54 298 0.9 1.7 0.00 0.00 0.00 60 1013.8
20260508003003 55 300 1.7 1.7 0.00 0.00 0.00 59 1013.7
20260508002503 56 302 1.7 1.7 0.00 0.00 0.00 56 1013.6
20260508002003 56 303 1.7 1.7 0.00 0.00 0.00 53 1013.6
20260508001503 56 304 0.9 1.7 0.00 0.00 0.00 50 1013.5
20260508001003 56 307 1.7 2.6 0.00 0.00 0.00 50 1013.5
20260508000503 56 306 1.7 2.6 0.00 0.00 0.00 49 1013.5
20260508000003 57 301 1.7 3.5 0.00 0.00 0.00 49 1013.5
20260507235503 57 299 1.7 3.5 0.00 0.00 0.00 48 1013.5
20260507235003 57 297 1.7 4.3 0.00 0.00 0.00 48 1013.4
20260507234503 58 295 2.6 4.3 0.00 0.00 0.00 48 1013.5
20260507234003 58 295 2.6 4.3 0.00 0.00 0.00 47 1013.4
20260507233503 59 299 2.6 4.3 0.00 0.00 0.00 47 1013.3
20260507233003 60 301 1.7 3.5 0.00 0.00 0.00 45 1013.3
20260507232503 60 292 1.7 3.5 0.00 0.00 0.00 46 1013.3
20260507232024 60 283 2.6 4.3 0.00 0.00 0.00 43 1013.3
20260507231503 60 283 3.5 6.1 0.00 0.00 0.00 42 1013.4
20260507231024 60 287 3.5 6.1 0.00 0.00 0.00 44 1013.4
20260507230503 61 295 3.5 5.2 0.00 0.00 0.00 44 1013.4
20260507230003 61 296 3.5 6.1 0.00 0.00 0.00 43 1013.4
20260507225503 62 296 2.6 6.1 0.00 0.00 0.00 44 1013.4
20260507225003 62 301 2.6 5.2 0.00 0.00 0.00 42 1013.3
20260507224524 63 308 2.6 5.2 0.00 0.00 0.00 42 1013.3
20260507224003 62 331 1.7 5.2 0.00 0.00 0.00 42 1013.2
20260507223503 62 315 2.6 5.2 0.00 0.00 0.00 43 1013.2
20260507223003 62 296 2.6 5.2 0.00 0.00 0.00 44 1013.2
20260507222503 63 292 2.6 6.1 0.00 0.00 0.00 43 1013.3
20260507222024 63 288 2.6 6.1 0.00 0.00 0.00 42 1013.3
20260507221503 63 285 3.5 7.0 0.00 0.00 0.00 44 1013.3
20260507221003 63 294 3.5 7.0 0.00 0.00 0.00 42 1013.5
20260507220524 63 295 2.6 6.1 0.00 0.00 0.00 39 1013.4
20260507220003 63 288 3.5 8.7 0.00 0.00 0.00 43 1013.4
20260507215503 63 286 3.5 8.7 0.00 0.00 0.00 41 1013.4
20260507215003 64 278 4.3 7.0 0.00 0.00 0.00 44 1013.4
20260507214503 63 292 3.5 7.0 0.00 0.00 0.00 40 1013.4
20260507214003 63 303 3.5 7.0 0.00 0.00 0.00 44 1013.2
20260507213503 64 291 3.5 7.0 0.00 0.00 0.00 45 1013.2
20260507213003 63 302 2.6 5.2 0.00 0.00 0.00 36 1013.2
20260507212524 63 312 2.6 6.1 0.00 0.00 0.00 44 1013.1
20260507212003 63 314 3.5 7.8 0.00 0.00 0.00 44 1013.0
20260507211524 63 308 4.3 9.6 0.00 0.00 0.00 45 1013.1
20260507211024 63 296 3.5 9.6 0.00 0.00 0.00 40 1013.0
20260507210524 63 317 2.6 6.1 0.00 0.00 0.00 41 1013.1
20260507210003 64 307 3.5 8.7 0.00 0.00 0.00 43 1013.1
20260507205503 64 292 3.5 8.7 0.00 0.00 0.00 41 1013.0
20260507205003 64 289 4.3 8.7 0.00 0.00 0.00 39 1013.0
20260507204503 64 282 4.3 7.0 0.00 0.00 0.00 44 1013.1
20260507204003 64 282 4.3 9.6 0.00 0.00 0.00 44 1013.1
20260507203524 64 282 4.3 9.6 0.00 0.00 0.00 44 1013.1
20260507203003 64 283 4.3 7.8 0.00 0.00 0.00 40 1013.0
20260507202503 63 306 3.5 7.0 0.00 0.00 0.00 47 1013.0
20260507202003 63 310 4.3 8.7 0.00 0.00 0.00 37 1013.0
20260507201503 63 284 4.3 11.3 0.00 0.00 0.00 44 1013.0
20260507201003 63 268 3.5 11.3 0.00 0.00 0.00 43 1013.1
20260507200524 63 283 3.5 7.8 0.00 0.00 0.00 46 1013.2
20260507200003 63 304 4.3 7.0 0.00 0.00 0.00 44 1013.2
20260507195503 63 309 3.5 7.0 0.00 0.00 0.00 43 1013.2
20260507195003 63 336 2.6 7.0 0.00 0.00 0.00 48 1013.2
20260507194503 62 3 2.6 7.0 0.00 0.00 0.00 41 1013.1
20260507194003 62 320 3.5 7.8 0.00 0.00 0.00 44 1013.3
20260507193524 63 291 4.3 7.8 0.00 0.00 0.00 43 1013.3
20260507193003 63 298 3.5 10.4 0.00 0.00 0.00 50 1013.2
20260507192503 63 318 3.5 10.4 0.00 0.00 0.00 48 1013.2
20260507192003 62 326 2.6 7.8 0.00 0.00 0.00 45 1013.3
20260507191503 62 284 2.6 7.0 0.00 0.00 0.00 42 1013.2
20260507191003 62 284 3.5 7.8 0.00 0.00 0.00 43 1013.4
20260507190503 63 281 4.3 7.8 0.00 0.00 0.00 47 1013.5
20260507190004 63 281 5.2 10.4 0.00 0.00 0.00 43 1013.5
20260507185503 62 302 4.3 10.4 0.00 0.00 0.00 49 1013.6
20260507185003 62 316 3.5 7.8 0.00 0.00 0.00 49 1013.6
20260507184503 62 301 2.6 6.1 0.00 0.00 0.00 46 1013.6
20260507184003 62 299 3.5 11.3 0.00 0.00 0.00 47 1013.6
20260507183503 62 289 4.3 11.3 0.00 0.00 0.00 47 1013.5
20260507183024 62 298 4.3 8.7 0.00 0.00 0.00 52 1013.6
20260507182524 62 294 4.3 11.3 0.00 0.00 0.00 49 1013.6
20260507182003 62 286 4.3 11.3 0.00 0.00 0.00 50 1013.7
20260507181503 61 297 3.5 7.0 0.00 0.00 0.00 56 1013.7
20260507181003 61 294 3.5 6.1 0.00 0.00 0.00 50 1013.7
20260507180503 61 268 2.6 6.1 0.00 0.00 0.00 55 1013.7
20260507180003 60 256 3.5 7.8 0.00 0.00 0.00 42 1013.7
20260507175503 60 290 4.3 7.8 0.00 0.00 0.00 46 1013.8
20260507175003 61 310 4.3 8.7 0.00 0.00 0.00 46 1013.9
20260507174503 61 283 4.3 9.6 0.00 0.00 0.00 47 1013.7
20260507174003 60 264 3.5 9.6 0.00 0.00 0.00 54 1013.7
20260507173524 60 262 3.5 9.6 0.00 0.00 0.00 48 1014.0
20260507173004 60 256 4.3 10.4 0.00 0.00 0.00 48 1014.2
20260507172503 61 254 4.3 10.4 0.00 0.00 0.00 51 1014.2
20260507172003 60 269 4.3 9.6 0.00 0.00 0.00 45 1014.3
20260507171503 61 280 4.3 7.8 0.00 0.00 0.00 56 1014.4
20260507171003 60 277 3.5 7.8 0.00 0.00 0.00 56 1014.5
20260507170524 60 272 3.5 8.7 0.00 0.00 0.00 53 1014.5
20260507170024 60 285 4.3 9.6 0.00 0.00 0.00 56 1014.7
20260507165503 60 306 4.3 9.6 0.00 0.00 0.00 55 1014.8
20260507165003 60 333 3.5 7.8 0.00 0.00 0.00 52 1014.7
20260507164503 60 304 4.3 9.6 0.00 0.00 0.00 53 1014.8
20260507164003 60 286 3.5 9.6 0.00 0.00 0.00 53 1014.7
20260507163524 60 288 3.5 8.7 0.00 0.00 0.00 60 1014.6
20260507163003 60 279 3.5 9.6 0.00 0.00 0.00 51 1014.7
20260507162503 60 272 3.5 9.6 0.00 0.00 0.00 54 1014.7
20260507162024 59 277 3.5 8.7 0.00 0.00 0.00 54 1014.8
20260507161503 59 296 4.3 8.7 0.00 0.00 0.00 56 1014.9
20260507161024 59 290 5.2 8.7 0.00 0.00 0.00 50 1014.8
20260507160503 59 289 4.3 8.7 0.00 0.00 0.00 51 1014.9
20260507160003 59 296 3.5 7.0 0.00 0.00 0.00 56 1014.8
20260507155524 59 289 3.5 7.0 0.00 0.00 0.00 59 1014.9
20260507155003 59 283 4.3 7.0 0.00 0.00 0.00 58 1014.9
20260507154503 58 290 3.5 7.0 0.00 0.00 0.00 59 1015.0
20260507154003 59 299 4.3 8.7 0.00 0.00 0.00 53 1014.9
20260507153504 59 292 4.3 8.7 0.00 0.00 0.00 58 1014.9
20260507153003 58 284 3.5 7.8 0.00 0.00 0.00 51 1014.8
20260507152503 58 284 3.5 6.1 0.00 0.00 0.00 54 1014.8
20260507152003 58 286 2.6 6.1 0.00 0.00 0.00 60 1014.7
20260507151524 57 301 2.6 7.0 0.00 0.00 0.00 54 1014.6
20260507151003 57 339 3.5 7.8 0.00 0.00 0.00 50 1014.7
20260507150503 57 354 3.5 7.8 0.00 0.00 0.00 52 1014.7
20260507150003 57 328 3.5 6.1 0.00 0.00 0.00 52 1014.7
20260507145503 57 314 3.5 7.8 0.00 0.00 0.00 54 1014.7
20260507145003 57 351 2.6 7.8 0.00 0.00 0.00 54 1014.7
20260507144503 56 330 3.5 7.0 0.00 0.00 0.00 55 1014.7
20260507144024 56 298 3.5 7.0 0.00 0.00 0.00 54 1014.7
20260507143503 56 358 2.6 7.0 0.00 0.00 0.00 59 1014.6
20260507143003 56 358 3.5 7.0 0.00 0.00 0.00 59 1014.6
20260507142503 56 335 2.6 6.1 0.00 0.00 0.00 61 1014.7
20260507142003 55 330 3.5 7.0 0.00 0.00 0.00 58 1014.8
20260507141503 55 346 3.5 7.0 0.00 0.00 0.00 55 1014.7
20260507141003 55 25 3.5 6.1 0.00 0.00 0.00 59 1014.7
20260507140503 55 353 3.5 7.0 0.00 0.00 0.00 56 1014.8
20260507140003 55 338 3.5 7.0 0.00 0.00 0.00 59 1014.8
20260507135503 55 346 3.5 7.0 0.00 0.00 0.00 63 1014.9
20260507135003 54 3 3.5 7.8 0.00 0.00 0.00 60 1014.9
20260507134503 54 28 4.3 7.8 0.00 0.00 0.00 62 1014.9
20260507134003 54 20 3.5 7.8 0.00 0.00 0.00 60 1014.9
20260507133503 54 14 2.6 5.2 0.00 0.00 0.00 61 1015.0
20260507133003 54 360 2.6 6.1 0.00 0.00 0.00 62 1014.9
20260507132503 53 352 3.5 6.1 0.00 0.00 0.00 65 1014.9
20260507132003 53 345 2.6 6.1 0.00 0.00 0.00 62 1014.8
20260507131503 53 353 2.6 6.1 0.00 0.00 0.00 67 1014.7
20260507131003 52 29 3.5 7.0 0.00 0.00 0.00 71 1014.7
20260507130503 52 28 4.3 8.7 0.00 0.00 0.00 66 1014.8
20260507130003 51 18 4.3 8.7 0.00 0.00 0.00 67 1014.8
20260507125524 51 10 3.5 7.8 0.00 0.00 0.00 68 1014.8
20260507125003 51 8 3.5 7.8 0.00 0.00 0.00 70 1014.9
20260507124503 50 360 3.5 7.0 0.00 0.00 0.00 70 1014.9
20260507124003 50 347 2.6 7.0 0.00 0.00 0.00 71 1015.0
20260507123503 50 351 2.6 7.0 0.00 0.00 0.00 73 1014.9
20260507123003 49 346 2.6 7.8 0.00 0.00 0.00 78 1014.9
20260507122503 48 333 3.5 7.8 0.00 0.00 0.00 77 1015.0
20260507122003 48 330 3.5 7.8 0.00 0.00 0.00 80 1015.0
20260507121503 48 330 3.5 7.8 0.00 0.00 0.00 80 1015.1
20260507121003 47 340 3.5 7.0 0.00 0.00 0.00 81 1015.1
20260507120503 47 341 2.6 6.1 0.00 0.01 0.00 83 1015.1
20260507120003 46 329 2.6 7.0 0.00 0.01 0.00 86 1015.0
20260507115503 46 326 2.6 7.0 0.00 0.01 0.00 87 1015.0
20260507115003 45 325 2.6 6.1 0.00 0.01 0.00 88 1015.0
20260507114503 44 323 2.6 5.2 0.00 0.01 0.00 90 1015.0
20260507114024 44 318 2.6 6.1 0.00 0.01 0.00 90 1014.9
20260507113503 43 318 1.7 6.1 0.00 0.01 0.00 94 1014.9
20260507113004 43 324 1.7 4.3 0.00 0.01 0.00 93 1014.9
20260507112503 42 329 1.7 3.5 0.00 0.01 0.00 94 1014.8
20260507112003 42 325 0.9 3.5 0.00 0.01 0.00 94 1014.7
20260507111504 42 319 0.9 2.6 0.00 0.01 0.00 94 1014.6
20260507111024 41 321 0.9 2.6 0.00 0.01 0.00 94 1014.5
20260507110524 41 321 1.7 3.5 0.00 0.01 0.00 94 1014.4
20260507110003 41 323 1.7 4.3 0.00 0.01 0.00 95 1014.3
20260507105524 41 324 1.7 4.3 0.00 0.01 0.00 95 1014.3
20260507105003 41 325 1.7 3.5 0.00 0.01 0.00 95 1014.3
20260507104503 41 322 0.9 2.6 0.00 0.01 0.00 95 1014.3
20260507104003 40 320 0.9 2.6 0.00 0.01 0.00 95 1014.2
20260507103503 40 323 0.9 1.7 0.00 0.01 0.00 95 1014.2
20260507103003 40 327 0.9 1.7 0.00 0.01 0.00 95 1014.1
20260507102503 40 338 0.0 0.9 0.00 0.01 0.00 94 1014.1
20260507102003 40 0 0.0 0.0 0.00 0.01 0.00 94 1014.0
20260507101524 41 0 0.0 0.0 0.00 0.01 0.00 94 1014.1
20260507101003 41 339 0.0 1.7 0.00 0.01 0.00 95 1014.2
20260507100503 41 339 0.9 2.6 0.00 0.01 0.00 94 1014.2
20260507100003 41 338 0.0 2.6 0.00 0.01 0.00 94 1014.1
20260507095524 41 0 0.0 0.0 0.00 0.01 0.00 94 1014.1
20260507095024 42 0 0.0 0.0 0.00 0.01 0.00 94 1014.1
20260507094503 42 0 0.0 0.0 0.00 0.01 0.00 95 1014.1
20260507094003 42 0 0.0 0.0 0.00 0.02 0.00 95 1014.1
20260507093503 42 0 0.0 0.0 0.00 0.02 0.00 94 1014.1
20260507093003 42 0 0.0 0.0 0.00 0.02 0.00 94 1014.1
20260507092524 42 0 0.0 0.0 0.00 0.02 0.00 94 1014.0
20260507092024 42 0 0.0 0.0 0.00 0.02 0.00 94 1013.9
20260507091503 42 0 0.0 0.0 0.00 0.03 0.00 94 1013.9